Location: Ulm
(48.3980°N, 9.9777°E)
Time: 17:54:58
(UTC+02:00)

ELECTRON R/B - Visible Passes

Search period start: 20 May 2018 00:00
Search period end: 30 May 2018 00:00
Orbit: 285 x 480 km, 82.9° (Epoch: 19 May)

Date Brightness Start Highest point End Pass type
(mag) Time Alt. Az. Time Alt. Az. Time Alt. Az.
20 May 5.0 22:26:32 10° NNW 22:28:57 50° W 22:30:40 16° SSW visible
21 May 7.5 23:04:41 10° WNW 23:05:12 10° W 23:05:44 10° W visible
22 May 4.7 22:06:36 10° NNW 22:09:02 60° W 22:11:26 10° S visible
23 May 7.4 22:44:08 10° WNW 22:45:11 12° W 22:46:13 10° WSW visible
24 May 4.5 21:46:23 10° NNW 21:48:49 75° W 21:51:16 10° S visible
25 May 7.4 22:23:27 10° NW 22:24:51 14° W 22:26:15 10° SW visible
27 May 7.3 22:02:33 10° NW 22:04:14 16° W 22:05:56 10° SW visible
